[[{"header":{"parameterUnit":"m.s-1","parameterCategory":1,"la1":30.2991,"la2":30.254,"lo1":-89.0895,"lo2":-89.0444,"dy":0.0017,"dx":0.0017,"nx":28,"ny":28,"refTime":"2025-04-23T09:00:00:Z","depth":0,"parameterNumber":2,"parameterNumberName":"U-component_of_WINDS"},"data":[0,0,0,0,0,0,0,0,0,0,0,0,0,0,0,0,0,0,0,0,0,0,0,0,0,0,0,0,0,0,0,0,0,0,0,0,0,0,0,0,0,0,0,0,0,0,0,0,0,0,0,0,0,0,0,0,0,0,-0.3196,-0.3196,0,-0.3229,-0.323,-0.323,-0.3254,-0.3254,-0.3255,-0.3255,-0.3289,-0.3289,-0.329,0,0,0,0,0,0,0,0,0,0,0,0,0,-0.3153,-0.3154,-0.3196,-0.3196,-0.3197,-0.3229,-0.323,-0.323,-0.3254,-0.3254,-0.3255,-0.3255,-0.3288,-0.3289,-0.329,0,0,0,0,0,0,0,0,0,0,0,0,0,-0.3178,-0.3154,-0.3196,-0.3213,-0.3214,-0.3229,-0.323,-0.323,-0.3254,-0.3254,-0.3255,-0.3255,-0.3288,-0.3289,-0.329,-0.3291,0,0,-0.3294,-0.3294,0,0,0,0,0,0,0,0,-0.3176,-0.3179,-0.321,-0.3211,-0.3214,-0.3238,-0.3227,-0.3251,-0.3254,-0.3239,-0.3255,-0.3255,-0.3271,-0.3274,-0.328,-0.3292,-0.3294,-0.3294,-0.3294,-0.3295,-0.3295,0,0,0,0,0,0,0,-0.3175,-0.3178,-0.3209,-0.321,-0.3212,-0.3219,-0.3222,-0.3232,-0.3253,-0.324,-0.3242,-0.3246,-0.3273,-0.3278,-0.3281,-0.3294,-0.3294,-0.3295,-0.3295,-0.3296,-0.3312,-0.3311,0,0,0,0,0,0,-0.317,-0.3176,-0.3208,-0.321,-0.3195,-0.3219,-0.3223,-0.323,-0.3253,-0.3257,-0.3246,-0.3247,-0.3276,-0.3279,-0.3282,-0.3285,-0.3295,-0.3296,-0.3296,-0.3312,-0.3311,-0.3311,0,0,0,0,0,0,-0.3169,-0.3173,-0.3207,-0.3194,-0.3199,-0.322,-0.3227,-0.323,-0.3236,-0.3257,-0.3261,-0.3248,-0.3277,-0.328,-0.3289,-0.3287,-0.3296,-0.3297,-0.3312,-0.3312,-0.3311,-0.3291,0,0,0,0,0,0,-0.3168,-0.3172,-0.3173,-0.3194,-0.3199,-0.3213,-0.3226,-0.3231,-0.3238,-0.324,-0.326,-0.3264,-0.3277,-0.3287,-0.329,-0.3288,-0.3298,-0.3312,-0.3312,-0.3311,-0.3292,-0.329,-0.3289,0,0,0,0,0,-0.3166,-0.3165,-0.3172,-0.3176,-0.32,-0.3213,-0.3216,-0.3232,-0.3238,-0.3238,-0.3252,-0.3263,-0.3287,-0.3288,-0.3291,-0.329,-0.3312,-0.3312,-0.3311,-0.3293,-0.3291,-0.3289,0,0,0,0,0,0,-0.3143,-0.3168,-0.3177,-0.3182,-0.3195,-0.3217,-0.3218,-0.3229,-0.324,-0.3241,-0.3261,-0.3265,-0.3272,-0.3282,-0.3283,-0.3293,-0.3301,-0.3301,-0.3286,-0.3284,-0.3282,-0.328,-0.3299,0,0,0,0,0,-0.3138,-0.3146,-0.3168,-0.3171,-0.3177,-0.3196,-0.3203,-0.3214,-0.3228,-0.3234,-0.3248,-0.3261,-0.3272,-0.3278,-0.3289,-0.3294,-0.3299,-0.3295,-0.3293,-0.3292,-0.3292,-0.3296,-0.3295,-0.331,-0.331,-0.331,0,0,-0.3129,-0.3144,-0.3148,-0.3167,-0.3178,-0.3187,-0.3201,-0.3209,-0.3216,-0.3235,-0.3244,-0.3255,-0.3272,-0.3279,-0.3282,-0.3287,-0.3289,-0.3291,-0.329,-0.329,-0.3296,-0.3294,-0.3293,-0.3309,-0.3309,-0.3309,0,0,-0.3116,-0.3128,-0.3132,-0.3144,-0.3161,-0.3174,-0.3175,-0.3196,-0.3204,-0.3214,-0.3229,-0.3237,-0.3255,-0.3266,-0.3274,-0.3268,-0.3279,-0.3271,-0.3261,-0.3266,-0.3265,-0.3264,-0.3262,-0.3262,-0.3271,-0.3271,-0.3271,0,-0.3102,-0.3116,-0.3133,-0.3141,-0.3149,-0.3168,-0.3173,-0.3183,-0.3203,-0.3208,-0.3213,-0.3237,-0.3249,-0.326,-0.3258,-0.3264,-0.3267,-0.3268,-0.3263,-0.3263,-0.3262,-0.3261,-0.326,-0.327,-0.327,-0.327,-0.327,0,-0.3098,-0.3107,-0.3109,-0.3128,-0.3137,-0.3143,-0.3162,-0.3168,-0.3179,-0.3192,-0.3203,-0.3218,-0.3233,-0.3236,-0.3247,-0.3249,-0.3252,-0.326,-0.3269,-0.3259,-0.3259,-0.3258,-0.3268,-0.3268,-0.3269,-0.3269,0,0,-0.3071,-0.3101,-0.3101,-0.3111,-0.3132,-0.314,-0.3147,-0.3162,-0.3168,-0.3181,-0.3189,-0.3204,-0.3212,-0.3222,-0.3234,-0.3237,-0.3233,-0.3245,-0.3246,-0.3243,-0.3238,-0.3231,-0.3231,-0.324,-0.324,-0.324,-0.3236,0,-0.3062,-0.3076,-0.3093,-0.3102,-0.3111,-0.313,-0.3137,-0.3151,-0.3163,-0.3173,-0.3187,-0.3198,-0.3207,-0.3213,-0.3218,-0.3232,-0.3232,-0.3233,-0.3248,-0.3248,-0.3243,-0.323,-0.3224,-0.3219,-0.3236,-0.3236,-0.3236,0,-0.3053,-0.3067,-0.3076,-0.3098,-0.3103,-0.3109,-0.3125,-0.3134,-0.315,-0.3159,-0.317,-0.3184,-0.3193,-0.3201,-0.3215,-0.3215,-0.3223,-0.3231,-0.3231,-0.3233,-0.3242,-0.3233,-0.3218,-0.3218,-0.3236,-0.3236,-0.3236,0,-0.3033,-0.3054,-0.3063,-0.307,-0.3096,-0.3099,-0.311,-0.3127,-0.3136,-0.315,-0.3156,-0.3171,-0.3179,-0.319,-0.3208,-0.3211,-0.322,-0.3229,-0.3229,-0.3228,-0.3229,-0.3229,-0.3216,-0.3233,-0.3233,-0.3233,-0.3233,0,-0.3022,-0.3027,-0.3054,-0.306,-0.3067,-0.3086,-0.3093,-0.3106,-0.3121,-0.313,-0.3147,-0.3154,-0.3177,-0.3187,-0.3201,-0.3211,-0.3215,-0.3223,-0.3226,-0.3221,-0.322,-0.3227,-0.3227,-0.3233,-0.3233,-0.3233,-0.3233,0,-0.3001,-0.3019,-0.303,-0.3054,-0.306,-0.3064,-0.3084,-0.3091,-0.3105,-0.3116,-0.3119,-0.3141,-0.3155,-0.3173,-0.3193,-0.3202,-0.3211,-0.3216,-0.3205,-0.3207,-0.3206,-0.3206,-0.3197,-0.3197,-0.3213,-0.3213,-0.3213,0,-0.2992,-0.2997,-0.3022,-0.3029,-0.3039,-0.3051,-0.306,-0.3079,-0.3088,-0.3109,-0.3113,-0.3128,-0.3141,-0.3162,-0.318,-0.3195,-0.3202,-0.3198,-0.3204,-0.3199,-0.3203,-0.3202,-0.3203,-0.3196,-0.3196,-0.3195,-0.3195,0,-0.2976,-0.2985,-0.2998,-0.3013,-0.3024,-0.3037,-0.3051,-0.3056,-0.3079,-0.3088,-0.3103,-0.3113,-0.3134,-0.3149,-0.3167,-0.3178,-0.3191,-0.3193,-0.3194,-0.3189,-0.3183,-0.3187,-0.3201,-0.3193,-0.3193,-0.3193,-0.3194,-0.3194,-0.2962,-0.2967,-0.2986,-0.3,-0.3012,-0.3026,-0.3033,-0.3048,-0.3061,-0.3079,-0.309,-0.3104,-0.3123,-0.3148,-0.3159,-0.3171,-0.3176,-0.3177,-0.3177,-0.3177,-0.3176,-0.3181,-0.3174,-0.3174,-0.3175,-0.3175,-0.3175,0,-0.2947,-0.296,-0.2972,-0.2992,-0.3003,-0.3014,-0.3031,-0.3039,-0.3052,-0.3068,-0.3081,-0.3098,-0.3113,-0.3132,-0.3149,-0.3155,-0.3161,-0.3159,-0.3159,-0.3162,-0.317,-0.3168,-0.3154,-0.3154,-0.3154,-0.3154,-0.3154,-0.3154,-0.2941,-0.2951,-0.2963,-0.298,-0.2993,-0.3008,-0.3016,-0.3029,-0.3042,-0.3061,-0.3073,-0.3086,-0.3104,-0.3122,-0.3137,-0.3142,-0.3148,-0.3144,-0.3151,-0.3159,-0.3161,-0.3162,-0.3161,-0.3145,-0.3145,-0.3141,-0.3141,-0.3141]},{"header":{"parameterUnit":"m.s-1","parameterCategory":1,"la1":30.2991,"la2":30.254,"lo1":-89.0895,"lo2":-89.0444,"dy":0.0017,"dx":0.0017,"nx":28,"ny":28,"refTime":"2025-04-23T09:00:00:Z","depth":0,"parameterNumber":3,"parameterNumberName":"V-component_of_WINDS"},"data":[0,0,0,0,0,0,0,0,0,0,0,0,0,0,0,0,0,0,0,0,0,0,0,0,0,0,0,0,0,0,0,0,0,0,0,0,0,0,0,0,0,0,0,0,0,0,0,0,0,0,0,0,0,0,0,0,0,0,3.914,3.9139,0,3.9084,3.9084,3.9083,3.9011,3.9009,3.9008,3.9007,3.8948,3.8948,3.8947,0,0,0,0,0,0,0,0,0,0,0,0,0,3.9182,3.9182,3.914,3.9139,3.9139,3.9085,3.9084,3.9083,3.9011,3.9009,3.9008,3.9007,3.8948,3.8948,3.8947,0,0,0,0,0,0,0,0,0,0,0,0,0,3.9149,3.9182,3.914,3.9096,3.9092,3.9085,3.9084,3.9083,3.9011,3.9009,3.9008,3.9006,3.8949,3.8948,3.8947,3.8978,0,0,3.8945,3.8945,0,0,0,0,0,0,0,0,3.9151,3.9148,3.9103,3.9099,3.9094,3.9053,3.9077,3.9048,3.9012,3.9042,3.9007,3.9005,3.8984,3.898,3.8974,3.8975,3.8973,3.8945,3.8945,3.8944,3.8944,0,0,0,0,0,0,0,3.9154,3.915,3.9118,3.9103,3.9097,3.9079,3.9072,3.9071,3.9023,3.9039,3.9033,3.9028,3.8981,3.8975,3.8972,3.8972,3.8945,3.8944,3.8944,3.8944,3.8996,3.8997,0,0,0,0,0,0,3.9163,3.9152,3.912,3.9116,3.9119,3.908,3.9072,3.9068,3.9023,3.9015,3.903,3.9025,3.8977,3.8973,3.897,3.9002,3.8944,3.8944,3.8943,3.8994,3.8996,3.8998,0,0,0,0,0,0,3.9164,3.916,3.9122,3.9133,3.9126,3.9081,3.9076,3.9068,3.9061,3.9016,3.9007,3.9032,3.8975,3.8971,3.8977,3.8999,3.8943,3.8943,3.8992,3.8994,3.8997,3.9067,0,0,0,0,0,0,3.9165,3.9161,3.9173,3.9134,3.9126,3.913,3.9078,3.9068,3.906,3.9053,3.9016,3.9008,3.8974,3.8978,3.8976,3.8997,3.8942,3.8989,3.8993,3.8996,3.9063,3.9072,3.908,0,0,0,0,0,3.9167,3.9195,3.9174,3.917,3.914,3.9132,3.9127,3.9088,3.9062,3.9073,3.9045,3.9009,3.8998,3.8979,3.8976,3.8997,3.8988,3.8992,3.8996,3.9059,3.907,3.908,0,0,0,0,0,0,3.9237,3.9189,3.9165,3.9181,3.9161,3.912,3.9132,3.9101,3.9088,3.9082,3.9033,3.9026,3.9037,3.9018,3.8999,3.9025,3.8987,3.8991,3.9036,3.9047,3.9055,3.9058,3.8941,0,0,0,0,0,3.9254,3.9252,3.921,3.9228,3.922,3.9178,3.9173,3.9145,3.9122,3.9113,3.9085,3.9064,3.9055,3.905,3.904,3.9061,3.9051,3.9074,3.9082,3.909,3.9092,3.9101,3.911,3.9011,3.9011,3.9011,0,0,3.9289,3.9263,3.9264,3.9241,3.9223,3.9221,3.9171,3.9172,3.917,3.9113,3.9116,3.9095,3.9068,3.9082,3.9086,3.9066,3.9118,3.9095,3.9101,3.91,3.9106,3.9115,3.9124,3.9014,3.9013,3.9013,0,0,3.9352,3.9333,3.9345,3.9328,3.9301,3.9273,3.9276,3.924,3.9224,3.9227,3.9184,3.9181,3.9168,3.915,3.914,3.9198,3.9164,3.9196,3.924,3.9249,3.9257,3.9263,3.9282,3.929,3.92,3.92,3.92,0,3.9399,3.9395,3.9355,3.9358,3.9349,3.9299,3.931,3.9295,3.9266,3.9261,3.924,3.9222,3.92,3.9208,3.9222,3.9216,3.9217,3.9199,3.9259,3.9265,3.9271,3.9288,3.9296,3.9204,3.9203,3.9203,3.9203,0,3.9453,3.9452,3.9465,3.9438,3.9431,3.9439,3.9399,3.9396,3.9369,3.9344,3.9348,3.9321,3.9304,3.9304,3.9278,3.9308,3.9296,3.9268,3.9229,3.9285,3.93,3.9307,3.9209,3.9208,3.9207,3.9206,0,0,3.9555,3.9508,3.9513,3.95,3.9468,3.9465,3.9471,3.9455,3.9453,3.9436,3.9438,3.9429,3.9402,3.939,3.9362,3.937,3.9416,3.934,3.9339,3.9353,3.9446,3.9466,3.9474,3.9395,3.9396,3.9397,3.9447,0,3.961,3.9616,3.9581,3.9596,3.9594,3.9547,3.9552,3.9532,3.9509,3.9503,3.9478,3.9471,3.9438,3.943,3.9437,3.9409,3.9433,3.9405,3.9394,3.9394,3.94,3.9483,3.9503,3.9552,3.9454,3.9455,3.9455,0,3.9674,3.966,3.9676,3.9642,3.964,3.9645,3.9627,3.9623,3.96,3.9583,3.957,3.9538,3.954,3.9506,3.9507,3.9489,3.9483,3.9469,3.947,3.9465,3.9426,3.9477,3.9567,3.9574,3.9465,3.9464,3.9463,0,3.9744,3.973,3.9737,3.9728,3.969,3.9694,3.9678,3.9654,3.9647,3.9632,3.9626,3.9612,3.9604,3.9593,3.9558,3.9536,3.9563,3.9526,3.9547,3.9548,3.9552,3.9552,3.964,3.9554,3.9553,3.9553,3.9553,0,3.9807,3.9817,3.9768,3.9772,3.9782,3.9743,3.9754,3.9734,3.9713,3.9711,3.9671,3.9671,3.9625,3.962,3.9592,3.9597,3.9594,3.9579,3.9571,3.9581,3.9582,3.9574,3.9569,3.9555,3.9555,3.9554,3.9554,0,3.9885,3.9853,3.9857,3.9822,3.9813,3.9822,3.9791,3.9793,3.9769,3.9768,3.9766,3.9727,3.9718,3.9683,3.9666,3.9647,3.966,3.9646,3.9668,3.9662,3.9685,3.9683,3.9768,3.9777,3.9688,3.9689,3.9689,0,3.9926,3.9933,3.9899,3.9896,3.9882,3.9878,3.987,3.9832,3.9826,3.9801,3.9806,3.9795,3.9783,3.9772,3.9741,3.9728,3.9712,3.9743,3.9709,3.9719,3.9709,3.9708,3.9708,3.9749,3.975,3.9751,3.9752,0,4.0001,3.9985,3.9977,3.9963,3.9956,3.9943,3.9928,3.9928,3.9885,3.988,3.9872,3.9863,3.9846,3.9835,3.9817,3.9799,3.9768,3.9764,3.9767,3.9776,3.9788,3.978,3.9685,3.9761,3.976,3.9759,3.9759,3.9759,4.006,4.0064,4.0041,4.0033,4.0018,4.0005,4.0005,3.9981,3.9974,3.9957,3.9935,3.9929,3.9906,3.9879,3.9865,3.9859,3.9841,3.9848,3.9848,3.985,3.9854,3.9791,3.9856,3.9855,3.9855,3.9855,3.9855,0,4.0131,4.0115,4.0108,4.0088,4.0082,4.0056,4.0038,4.0034,4.0029,4.0011,4.0001,3.9991,3.998,3.995,3.9936,3.9937,3.9923,3.9935,3.9933,3.9929,3.9872,3.9869,3.9947,3.9947,3.9947,3.9947,3.9947,3.9947,4.0167,4.0172,4.0154,4.0151,4.0134,4.0128,4.012,4.0108,4.0093,4.0084,4.0075,4.0056,4.0033,4.0017,4.0006,3.9997,3.9993,4.0009,3.9996,3.9942,3.9933,3.9925,3.9921,4.001,4.001,4.0053,4.0054,4.0054]}]]